Regional Weather Roundup
Issued by NWS

Home | Current Version | Previous Version | Text Only | Print | Product List | Glossary On
Versions: 1 2 3 4 5 6 7 8 9 10 11 12 13 14 15 16 17 18 19 20 21 22 23 24 25 26 27 28 29 30 31 32 33 34 35 36 37 38 39 40 41 42 43 44 45 46 47 48 49 50
000
ASUS44 KOUN 272010
RWROK

WEATHER ROUNDUP FOR OKLAHOMA
NATIONAL WEATHER SERVICE NORMAN OK
200 PM CST SAT DEC 27 2014

NOTE: "FAIR" INDICATES FEW OR NO CLOUDS BELOW 12,000 FEET WITH NO
      SIGNIFICANT WEATHER AND/OR OBSTRUCTIONS TO VISIBILITY.

OKZ001>007-009>012-014-015-017-272100-
NORTHWEST OKLAHOMA AND THE PANHANDLE

CITY           SKY/WX    TMP DP  RH WIND       PRES   REMARKS
GAGE           SUNNY     36  14  40 NW12      30.27F WCI  28
ENID/WOODRING  PTSUNNY   37  19  48 NW17G23   30.29R WCI  28
$$

OKZ016-021>023-033>039-044-045-272100-
SOUTHWEST OKLAHOMA

CITY           SKY/WX    TMP DP  RH WIND       PRES   REMARKS
LAWTON/REGL    PTSUNNY   35  22  58 N16       30.29F WCI  25
LAWTON/FT SILL CLOUDY    35  23  61 N15       30.27F WCI  25
FREDERICK      CLOUDY    37  25  61 N17       30.27F WCI  27
CLINTON        MOSUNNY   36  16  44 NW15      30.29F WCI  27
HOBART         PTSUNNY   36  21  54 N13       30.30F WCI  27
ALTUS AFB      CLOUDY    36  21  53 N14       30.30F WCI  27
$$

OKZ018>020-024>031-272100-
CENTRAL OKLAHOMA

CITY           SKY/WX    TMP DP  RH WIND       PRES   REMARKS
OKLAHOMA CITY  PTSUNNY   34  22  61 N15       30.26F WCI  24
OKC/WILEY POST PTSUNNY   34  22  61 N13       30.28F WCI  25
OKC/TINKER AFB PTSUNNY   31  23  70 N16       30.25F WCI  20
STILLWATER     PTSUNNY   36  19  50 N10       30.28F WCI  28
GUTHRIE        PTSUNNY   35  20  54 N9        30.28F WCI  28
$$

OKZ008-013-054>072-272100-
NORTHEAST OKLAHOMA

CITY           SKY/WX    TMP DP  RH WIND       PRES   REMARKS
TULSA          FLURRIES  32  30  92 NW7       30.27R WCI  26
TULSA/JONES    CLOUDY    31  28  89 VRB7      30.27S WCI  24
PONCA CITY     MOSUNNY   36  17  46 NW13      30.29S WCI  27
BARTLESVILLE   CLOUDY    34  21  59 VRB6      30.29F WCI  29
MUSKOGEE       LGT RAIN  33  29  85 N12       30.27S WCI  24
$$

OKZ032-040>043-046>053-073>077-272100-
SOUTH CENTRAL/SOUTHEAST OKLAHOMA

CITY           SKY/WX    TMP DP  RH WIND       PRES   REMARKS
ARDMORE/DWNTWN CLOUDY    32  30  93 N13G21    30.24F WCI  22
MCALESTER      CLOUDY    35  31  85 N10       30.24F WCI  27
$$



USA.gov is the U.S. government's official web portal to all federal, state and local government web resources and services.